Location: Unspecified
(48.5670°N, 0.0000°E)
Time: 03:05:53
(UTC+00:00)

Transit 4A - Pass Details

Date: 29 August 2019
Orbit: 865 x 980 km, 66.8° (Epoch: 19 September)

Event Time Altitude Azimuth Distance (km) Brightness Sun altitude
Rises 02:00:11 0° 321° (NW) 3,632 11.2 -26.3°
Reaches altitude 10° 02:02:52 10° 315° (NW) 2,666 10.4 -26.0°
Enters shadow 02:07:12 37° 281° (W) 1,402 8.6 -25.6°
